Regional Weather Roundup
Issued by NWS

Home | Current Version | Previous Version | Text Only | Print | Product List | Glossary On
Versions: 1 2 3 4 5 6 7 8 9 10 11 12 13 14 15 16 17 18 19 20 21 22 23 24 25 26 27 28 29 30 31 32 33 34 35 36 37 38 39 40 41 42 43 44 45 46 47 48 49 50
000
ASUS46 KSTO 221015
RWRCA

NORTHERN AND CENTRAL CA REGIONAL WEATHER ROUNDUP
NATIONAL WEATHER SERVICE SACRAMENTO CA
300 AM PDT TUE MAY 22 2018

NOTE: FAIR INDICATES FEW OR NO CLOUDS BELOW 12,000 FEET WITH NO
SIGNIFICANT WEATHER AND/OR OBSTRUCTIONS TO VISIBILITY.

CAZ001-003-221100-
NORTHWEST AREA

CITY           SKY/WX    TMP DP  RH WIND       PRES   REMARKS
CRESCENT CITY  CLOUDY    52  50  93 NE3       29.91S
UKIAH          CLEAR     55  48  77 CALM      29.82S
$$

CAZ006-505>513-221100-
BAY AREA

CITY           SKY/WX    TMP DP  RH WIND       PRES   REMARKS
SANTA ROSA     CLOUDY    50  48  93 CALM      29.82S
SAN RAFAEL     N/A       54  MM  MM MISG
NAPA           CLOUDY    55  51  86 S13       29.84S
CONCORD        CLOUDY    56  50  80 S13       29.84S
OAKLAND CITY   N/A      MM  MM  MM MISG
OAKLAND        CLOUDY    54  51  90 W12       29.88F
SAN FRAN CITY  N/A       52  MM  89 MISG
SAN FRAN ARPT  CLOUDY    55  49  80 SW12      29.88S
LIVERMORE      CLOUDY    53  53 100 W8        29.87S
HAYWARD        CLOUDY    55  50  83 SW7       29.88F
REDWOOD CITY   N/A       54  MM  84 MISG
MOFFETT ARPT   CLOUDY    56  49  77 W6        29.89F
SAN JOSE ARPT  CLOUDY    56  50  80 CALM      29.88F
$$
CAZ034-037-514>518-221100-
CENTRAL COAST

CITY           SKY/WX    TMP DP  RH WIND       PRES   REMARKS
WATSONVILLE    CLOUDY    53  50  89 CALM      29.90R
SALINAS        CLOUDY    54  51  90 W7        29.90S
MONTEREY       LGT RAIN  53  51  93 W6        29.91S FOG
SAN LUIS OBISP CLOUDY    55  49  80 CALM      29.91S
SANTA MARIA    CLOUDY    53  51  93 NW3       29.91F
$$
CAZ015-016-221100-
NORTHERN SACRAMENTO VALLEY

CITY           SKY/WX    TMP DP  RH WIND       PRES   REMARKS
REDDING        CLEAR     66  56  70 N3        29.79S
RED BLUFF      CLEAR     67  56  67 CALM      29.80R
OROVILLE       CLEAR     63  55  75 S6        29.80R
$$
CAZ016>018-221100-
SOUTHERN SACRAMENTO VALLEY

CITY           SKY/WX    TMP DP  RH WIND       PRES   REMARKS
AUBURN         CLEAR     61  57  88 SE5       29.82S
BEALE AFB      CLEAR     56  51  82 S8        29.78R
LINCOLN        FAIR      55  50  82 SE10      29.80R
MARYSVILLE     CLEAR     58  51  78 S9        29.80R
SAC INTL ARPT  PTCLDY    55  50  83 S13       29.79R
MATHER AIRPORT CLEAR     54  50  87 S6G12     29.81
DOWNTOWN SAC   N/A       55  MM  MM MISG
SAC EXEC ARPT  CLEAR     54  52  93 S8        29.81R
VACAVILLE      CLEAR     57  55  93 SW14      29.78F
TRAVIS AFB     CLOUDY    54  49  85 SW22G30   29.78S
$$
CAZ019>021-221100-
SAN JOAQUIN VALLEY

CITY           SKY/WX    TMP DP  RH WIND       PRES   REMARKS
STOCKTON       CLEAR     57  50  77 W10       29.82R
MODESTO        CLEAR     57  50  77 N8        29.80F
MERCED         CLEAR     59  51  75 CALM      29.80S
LEMOORE        CLEAR     61  43  51 W3        29.81R
FRESNO         PTCLDY    65  52  62 W5        29.81R
HANFORD        CLEAR     66  52  60 N6        29.81R
PORTERVILLE    CLEAR     56  47  71 SE7       29.82S
BAKERSFIELD    CLEAR     65  45  48 N3        29.81S
$$
CAZ011-012-071-221100-
NORTHERN MOUNTAINS

CITY           SKY/WX    TMP DP  RH WIND       PRES   REMARKS
YREKA          CLEAR     51  44  77 E6        29.91S
MOUNT SHASTA   CLEAR     50  45  83 NE3       29.92S
ALTURAS        CLEAR     48  45  89 CALM      29.94S
$$
CAZ011-012-071-221100-
SIERRA NEVADA MTNS

CITY           SKY/WX    TMP DP  RH WIND       PRES   REMARKS
BLUE CANYON    CLOUDY    54  43  66 N3        29.96S
TRUCKEE        FOG       41  41 100 CALM      30.00R VSB 1/2
TAHOE VLY ARPT CLOUDY    42  42 100 S3        29.98S
MAMMOTH LAKES  MOCLDY    42  42  99 CALM      30.00F
$$



USA.gov is the U.S. government's official web portal to all federal, state and local government web resources and services.